Flag for Norway Weather past 2 weeks in Bodø, Norway

45 °F

Light rain. Passing clouds.

Feels Like: 40 °F
Forecast: 47 / 51 °F
Wind: 9 mph from East

Location: Bodo Vi

Current Time: Oct 10, 2015 at 10:30:31 PM

Latest Report: Oct 10, 2015 at 9:50 PM

Visibility: N/A

Pressure: 30.27 "Hg

Humidity: 100%

Dew point: 45 °F

Location of BodøLocation

Historic Weather in Bodø — Graph


Bodø temperature yesterday

Maximum temperature yesterday: 48 °F (at 11:50 AM)
Minimum temperature yesterday: 37 °F (at 7:20 AM)
Average temperature yesterday: 44 °F

Past Weeks' High & Low Weather Summary

High63 °F (Sep 29, 1:50 PM)100% (Sep 26, 7:50 AM)30.60 "Hg (Sep 26, 7:50 AM)
Low36 °F (Oct 5, 7:50 AM)45% (Oct 6, 3:50 AM)29.03 "Hg (Oct 2, 8:50 AM)
Average47 °F76%30.04 "Hg
* Reported Sep 25 9:20 PM — Oct 10 9:20 PM, Bodø, Weather by CustomWeather, © 2015

Note: Actual official high and low records may vary slightly from our data, if they occured in-between our weather recording intervals... More about our weather records


Bodø weather history for previous 24 hours

Time TempWeatherWind HumidityBarometerVisibility
9:20 PM
Sat, Oct 10
45 °FRain. Partly cloudy.2 mph100%30.27 "Hg4 mi
8:50 PM45 °FLight rain. Partly cloudy.6 mph93%30.27 "Hg6 mi
8:20 PM46 °FLight rain. Passing clouds.14 mph87%30.27 "HgN/A
7:50 PM46 °FLight rain. Passing clouds.13 mph87%30.27 "HgN/A
7:20 PM46 °FRain. Passing clouds.13 mph82%30.27 "HgN/A
6:50 PM46 °FLight rain. Partly sunny.14 mph82%30.27 "HgN/A
6:20 PM46 °FLight rain. Partly sunny.16 mph76%30.27 "HgN/A
5:50 PM48 °FLight rain. Partly sunny.16 mph71%30.27 "HgN/A
5:20 PM48 °FPartly sunny.15 mph71%30.27 "HgN/A
4:50 PM46 °FScattered clouds.15 mph76%30.27 "HgN/A
4:20 PM46 °FScattered clouds.14 mph71%30.27 "HgN/A
3:50 PM48 °FPartly sunny.15 mph66%30.27 "HgN/A
3:20 PM48 °FPartly sunny.16 mph66%30.27 "HgN/A
2:50 PM48 °FPartly sunny.14 mph66%30.27 "HgN/A
2:20 PM46 °FBroken clouds.15 mph71%30.27 "HgN/A
1:50 PM46 °FBroken clouds.15 mph71%30.30 "HgN/A
1:20 PM46 °FPartly sunny.15 mph71%30.30 "HgN/A
12:50 PM46 °FBroken clouds.12 mph71%30.30 "HgN/A
11:50 AM46 °FBroken clouds.15 mph71%30.27 "HgN/A
11:20 AM45 °FBroken clouds.17 mph76%30.27 "HgN/A
10:50 AM45 °FBroken clouds.16 mph76%30.30 "HgN/A
10:20 AM45 °FBroken clouds.17 mph76%30.30 "HgN/A
9:50 AM45 °FBroken clouds.15 mph76%30.27 "HgN/A
9:20 AM45 °FBroken clouds.16 mph71%30.27 "HgN/A
8:50 AM43 °FBroken clouds.16 mph76%30.27 "HgN/A
8:20 AM43 °FPassing clouds.13 mph81%30.30 "HgN/A
7:50 AM43 °FPassing clouds.15 mph87%30.27 "HgN/A
7:20 AMN/APassing clouds.12 mphN/A30.30 "HgN/A
6:50 AM43 °FPassing clouds.13 mph81%30.30 "HgN/A
6:20 AM43 °FPassing clouds.12 mph81%30.30 "HgN/A
5:50 AM43 °FClear.12 mph81%30.30 "Hg10 mi
5:20 AM41 °FClear.14 mph87%30.30 "Hg10 mi
3:50 AM43 °FClear.12 mph76%30.30 "Hg10 mi
2:50 AM43 °FClear.14 mph71%30.30 "Hg10 mi
1:50 AM43 °FClear.13 mph71%30.30 "Hg10 mi
12:50 AM43 °FClear.13 mph71%30.30 "Hg10 mi
11:50 PM
Fri, Oct 9
43 °FClear.14 mph71%30.30 "Hg10 mi
10:50 PM43 °FClear.14 mph71%30.30 "Hg10 mi
10:20 PM43 °FClear.15 mph71%30.30 "Hg10 mi
Weather by CustomWeather, © 2015

See weather overviewHow to use our weather pages